Location: Unspecified
(0.0000°N, 0.0000°E)
Time: 06:36:35
(UTC+00:00)

Altair - Pass Details

Date: 27 November 2019
Orbit: 1502 x 1682 km, 47.2° (Epoch: 10 December)

Event Time Altitude Azimuth Distance (km) Brightness Sun altitude
Rises 11:12:08 0° 291° (WNW) 4,754 9.9 67.2°
Reaches altitude 10° 11:15:55 10° 279° (W) 3,800 9.6 67.5°
Maximum altitude 11:23:27 25° 227° (SW) 2,828 9.5 68.1°
Drops below altitude 10° 11:31:13 10° 175° (S) 3,909 10.1 68.5°
Sets 11:35:14 0° 163° (SSE) 4,916 10.4 68.7°
